• Join FlightAware (Why Join?)
  • Login
  • US Flag GB Flag 
20:42 EST


 

Airport Tracker/Info


-or-


 

Live Flight TrackerFlight Track Log ✈ DAL268 ✈ 17-May-2013 ✈ KJFK - LLBG / TLV

Flight Track Log - Related Links

Times and Time Zones

All times are in EDT time to prevent confusion due to time zone crossing. See the DAL268 flight status page for this flight to view local times or setup timezone preferences in your user account.

Time Position Orientation Groundspeed Altitude Reporting Facility
EDT Latitude Longitude Course Direction KTS MPH feet Rate Location/Type
23:35 40.6510 -73.8120 301° West 197 227  Level FlightAware
23:35 40.6590 -73.8370 293° West 192 221 800 1,500 Climbing FlightAware
23:35 40.6550 -73.8560 254° West 209 241 1,000 960 Climbing FlightAware
23:36 40.6440 -73.8710 226° Southwest 215 247 1,300 1,560 Climbing FlightAware
23:36 40.6310 -73.8790 205° Southwest 214 246 1,800 1,500 Climbing FlightAware
23:36 40.6080 -73.8900 200° South 230 265 2,300 840 Climbing FlightAware
23:37 40.5740 -73.8770 164° South 259 298 2,600 1,020 Climbing FlightAware
23:37 40.5660 -73.8660 134° Southeast 257 296 3,000 2,160 Climbing FlightAware
23:37 40.5600 -73.8400 107° East 253 291 3,700 1,680 Climbing FlightAware
23:38 40.5690 -73.8010 73° East 264 304 4,300 1,380 Climbing FlightAware
23:38 40.5830 -73.7560 68° East 288 331 5,000 1,680 Climbing FlightAware
23:38 40.5920 -73.7300 65° Northeast 295 339 5,600 2,520 Climbing FlightAware
23:39 40.5961 -73.7159 69° East 297 342 5,900 2,460 Climbing FlightAware ADS-B
23:39 40.6003 -73.6963 74° East 302 348 6,300 2,280 Climbing FlightAware ADS-B
23:39 40.6013 -73.6835 84° East 304 350 6,600 2,460 Climbing FlightAware ADS-B
23:39 40.6013 -73.6741 90° East 306 352 6,800 2,460 Climbing FlightAware ADS-B
23:39 40.6001 -73.6611 97° East 309 356 7,100 2,280 Climbing FlightAware ADS-B
23:39 40.5980 -73.6503 104° East 312 359 7,300 1,800 Climbing FlightAware ADS-B
23:39 40.5958 -73.6430 112° Southeast 314 361 7,400 1,500 Climbing FlightAware ADS-B
23:39 40.5910 -73.6303 116° Southeast 319 367 7,600 1,800 Climbing FlightAware ADS-B
23:40 40.5796 -73.6047 120° Southeast 325 374 8,100 2,220 Climbing FlightAware ADS-B
23:40 40.5730 -73.5889 119° Southeast 328 377 8,500 2,400 Climbing FlightAware ADS-B
23:40 40.5618 -73.5588 116° Southeast 333 383 9,100 2,040 Climbing FlightAware ADS-B
23:40 40.5521 -73.5296 114° Southeast 338 389 9,600 1,620 Climbing FlightAware ADS-B
23:41 40.5339 -73.4693 112° Southeast 360 414 10,400 1,260 Climbing FlightAware ADS-B
23:41 40.5152 -73.4046 111° Southeast 388 447 10,900 960 Climbing FlightAware ADS-B
23:42 40.5092 -73.3761 105° East 398 458 11,100 900 Climbing FlightAware ADS-B
23:42 40.5074 -73.3568 97° East 403 464 11,200 1,080 Climbing FlightAware ADS-B
23:42 40.5071 -73.3369 91° East 408 470 11,400 1,260 Climbing FlightAware ADS-B
23:42 40.5089 -73.3099 85° East 415 478 11,600 1,680 Climbing FlightAware ADS-B
23:42 40.5221 -73.2322 77° East 416 479 12,600 1,800 Climbing FlightAware ADS-B
23:44 40.5490 -73.0800 77° East 441 507 14,500 1,980 Climbing FlightAware
23:44 40.5592 -73.0219 77° East 447 514 15,300 1,800 Climbing FlightAware ADS-B
23:45 40.5830 -72.8830 77° East 460 529 16,800 1,680 Climbing FlightAware
23:46 40.6090 -72.7330 77° East 472 543 18,400 1,740 Climbing FlightAware
23:46 40.6300 -72.6080 77° East 481 554 19,600 1,380 Climbing FlightAware
23:47 40.6500 -72.4910 77° East 493 567 20,400 1,320 Climbing FlightAware
23:48 40.6700 -72.3740 77° East 500 575 21,400 1,380 Climbing FlightAware
23:48 40.6900 -72.2530 78° East 508 585 22,300 1,320 Climbing FlightAware
23:49 40.7000 -72.1913 78° East 513 590 22,700 1,320 Climbing FlightAware ADS-B
23:49 40.7154 -72.0984 78° East 519 597 23,400 1,200 Climbing FlightAware ADS-B
23:50 40.7315 -72.0002 78° East 524 603 24,000 1,140 Climbing FlightAware ADS-B
23:50 40.7479 -71.8998 78° East 531 611 24,600 660 Climbing FlightAware ADS-B
23:51 40.7750 -71.7400 77° East 533 613 25,000 1,140 Climbing FlightAware
23:51 40.7856 -71.6674 79° East 533 613 26,000 1,740 Climbing FlightAware ADS-B
23:52 40.8082 -71.5262 78° East 544 626 26,700 660 Climbing FlightAware ADS-B
23:54 40.8490 -71.2700 78° East 27,800 540 Climbing FlightAware
23:54 40.8670 -71.1550 78° East 563 648 27,900 60 Climbing FlightAware
23:55 40.8850 -71.0410 78° East 563 648 27,900 1,320 Level FlightAware
23:56 40.9160 -70.8360 79° East 30,100 2,040 Climbing FlightAware
23:56 40.9222 -70.7178 79° East 562 647 30,700 480 Climbing Boston Center
23:57 40.9486 -70.5550 78° East 562 647 30,900 60 Climbing Boston Center
23:58 41.0283 -70.3433 63° Northeast 535 616 30,900  Level Boston Center
23:59 41.1150 -70.1836 54° Northeast 535 616 30,900  Level Boston Center
00:01 41.2194 -69.9978 53° Northeast 529 609 30,900  Level Boston Center
00:02 41.3192 -69.7978 56° Northeast 529 609 30,900  Level Boston Center
00:03 41.3983 -69.6283 58° Northeast 529 609 30,900  Level Boston Center
00:08 41.8470 -68.7300 58° Northeast 542 624 31,000  Climbing FlightAware
00:09 41.8940 -68.6310 57° Northeast 542 624 31,000  Level FlightAware
00:09 41.9610 -68.4890 58° Northeast 541 623 31,000  Level FlightAware
00:10 42.0130 -68.3790 58° Northeast 541 623 31,000  Level FlightAware
00:11 42.0720 -68.2520 58° Northeast 541 623 31,000  Level FlightAware
00:12 42.1480 -68.0900 58° Northeast 541 623 31,000 -120 Level FlightAware
00:12 42.1940 -67.9900 58° Northeast 542 624 30,900  Descending FlightAware
00:13 42.2470 -67.8760 58° Northeast 537 618 31,000 60 Climbing FlightAware
00:14 42.3080 -67.7430 58° Northeast 537 618 31,000  Level FlightAware
00:14 42.3530 -67.6460 58° Northeast 537 618 31,000  Level FlightAware
00:15 42.3980 -67.5490 58° Northeast 537 618 31,000  Level FlightAware
00:16 42.4540 -67.4270 58° Northeast 537 618 31,000  Level FlightAware
00:17 42.4990 -67.3300 58° Northeast 537 618 31,000  Level FlightAware
00:17 42.5430 -67.2330 58° Northeast 537 618 31,000  Level FlightAware
00:18 42.5990 -67.1110 58° Northeast 537 618 31,000  Level FlightAware
00:19 42.6440 -67.0140 58° Northeast 537 618 31,000  Level FlightAware
00:19 42.6890 -66.9170 58° Northeast 537 618 31,000  Level FlightAware
00:20 42.7330 -66.8190 59° Northeast 537 618 31,000 -120 Level FlightAware
00:21 42.8420 -66.4540 68° East 562 647 30,900 -120 Descending FlightAware
00:22 42.8940 -66.3100 64° Northeast 560 644 30,900  Level FlightAware
00:22 42.9390 -66.1850 64° Northeast 564 649 30,900  Level FlightAware
00:23 42.9850 -66.0540 64° Northeast 561 646 30,900  Level FlightAware
00:24 43.0350 -65.9130 64° Northeast 558 642 30,900  Level FlightAware
00:24 43.0800 -65.7840 64° Northeast 554 638 30,900  Level FlightAware
00:25 43.1290 -65.6440 64° Northeast 545 627 30,900  Level FlightAware
00:26 43.1710 -65.5220 65° Northeast 541 623 30,900  Level FlightAware
00:27 43.2210 -65.3780 64° Northeast 540 621 30,900  Level FlightAware
00:27 43.2630 -65.2570 64° Northeast 538 619 30,900  Level FlightAware
00:28 43.3060 -65.1310 65° Northeast 536 617 30,900  Level FlightAware
00:29 43.3530 -64.9930 65° Northeast 534 615 30,900  Level FlightAware
00:29 43.3950 -64.8690 65° Northeast 531 611 30,900  Level FlightAware
00:30 43.4410 -64.7330 65° Northeast 522 601 30,900  Level FlightAware
00:31 43.4800 -64.6160 65° Northeast 522 601 30,900  Level FlightAware
00:32 43.5270 -64.4750 65° Northeast 520 598 30,900  Level FlightAware
00:32 43.5680 -64.3460 66° East 520 598 30,900  Level FlightAware
00:33 43.6020 -64.2430 65° Northeast 520 598 30,900  Level FlightAware
00:34 43.6350 -64.1390 66° East 520 598 30,900  Level FlightAware
00:34 43.6680 -64.0360 66° East 520 598 30,900  Level FlightAware
00:35 43.7010 -63.9330 66° East 520 598 30,900  Level FlightAware
00:36 43.7430 -63.8040 66° East 520 598 30,900  Level FlightAware
00:36 43.8190 -63.5860 64° Northeast 521 600 30,900  Level FlightAware
00:37 43.8650 -63.4420 66° East 521 600 30,900  Level FlightAware
00:38 43.8980 -63.3380 66° East 521 600 30,900  Level FlightAware
00:39 43.9320 -63.2340 66° East 521 600 30,900  Level FlightAware
00:39 43.9650 -63.1300 66° East 521 600 30,900  Level FlightAware
00:40 44.0490 -62.8610 66° East 530 610 30,900  Level FlightAware
00:41 44.0770 -62.7720 66° East 531 611 30,900  Level FlightAware
00:42 44.1180 -62.6380 67° East 531 611 30,900  Level FlightAware
00:42 44.1510 -62.5310 67° East 531 611 30,900  Level FlightAware
00:43 44.2080 -62.3490 66° East 532 612 30,900  Level FlightAware
00:44 44.2510 -62.2080 67° East 533 613 30,900  Level FlightAware
00:44 44.2850 -62.0980 67° East 533 613 30,900  Level FlightAware
00:45 44.3180 -61.9910 67° East 533 613 30,900  Level FlightAware
00:46 44.3500 -61.8830 67° East 533 613 30,900  Level FlightAware
00:46 44.3830 -61.7750 67° East 533 613 30,900  Level FlightAware
00:47 44.4240 -61.6400 67° East 533 613 30,900  Level FlightAware
00:48 44.4570 -61.5320 67° East 533 613 30,900  Level FlightAware
00:49 44.4890 -61.4230 68° East 533 613 30,900  Level FlightAware
00:49 44.5220 -61.3150 67° East 533 613 30,900  Level FlightAware
00:50 44.5550 -61.2070 67° East 533 613 30,900  Level FlightAware
00:51 44.5960 -61.0710 67° East 533 613 30,900  Level FlightAware
00:51 44.6290 -60.9630 67° East 533 613 30,900  Level FlightAware
00:52 44.7300 -60.5900 69° East 538 619 30,900  Level FlightAware
00:53 44.7730 -60.4430 68° East 539 620 30,900  Level FlightAware
00:54 44.8110 -60.3070 68° East 536 617 30,900  Level FlightAware
00:54 44.8510 -60.1670 68° East 534 615 30,900  Level FlightAware
00:55 44.8870 -60.0360 69° East 534 615 30,900  Level FlightAware
00:56 44.9290 -59.8860 68° East 533 613 30,900  Level FlightAware
00:56 44.9650 -59.7580 68° East 532 612 30,900  Level FlightAware
00:57 45.0010 -59.6270 69° East 530 610 30,900  Level FlightAware
00:58 45.0400 -59.4850 69° East 526 605 30,900  Level FlightAware
00:58 45.0740 -59.3610 69° East 524 603 30,900  Level FlightAware
00:59 45.1100 -59.2290 69° East 522 601 30,900  Level FlightAware
01:00 45.1490 -59.0840 69° East 520 598 30,900  Level FlightAware
01:01 45.1830 -58.9560 69° East 519 597 30,900  Level FlightAware
01:01 45.2200 -58.8160 69° East 518 596 30,900  Level FlightAware
01:02 45.2540 -58.6920 69° East 517 595 30,900  Level FlightAware
01:03 45.2870 -58.5630 70° East 517 595 30,900  Level FlightAware
01:03 45.3260 -58.4180 69° East 518 596 30,900  Level FlightAware
01:04 45.3590 -58.2890 70° East 519 597 30,900  Level FlightAware
01:05 45.3930 -58.1600 69° East 521 600 30,900  Level FlightAware
01:05 45.4300 -58.0150 70° East 522 601 30,900  Level FlightAware
01:06 45.4630 -57.8870 70° East 523 602 30,900  Level FlightAware
01:07 45.5090 -57.7080 70° East 524 603 30,900  Level FlightAware
01:08 45.5370 -57.5970 70° East 524 603 30,900  Level FlightAware
01:08 45.5650 -57.4870 70° East 524 603 30,900  Level FlightAware
01:09 45.5930 -57.3760 70° East 524 603 30,900  Level FlightAware
01:10 45.6220 -57.2650 69° East 524 603 30,900  Level FlightAware
01:11 45.6570 -57.1270 70° East 524 603 30,900  Level FlightAware
01:11 45.6850 -57.0160 70° East 524 603 30,900  Level FlightAware
01:12 45.7530 -56.7240 71° East 546 628 30,900 180 Level FlightAware
01:13 45.7870 -56.5720 72° East 549 632 31,200 600 Climbing FlightAware
01:13 45.8160 -56.4360 73° East 551 634 31,800 780 Climbing FlightAware
01:14 45.8440 -56.3080 73° East 555 639 32,200 360 Climbing FlightAware
01:15 45.8750 -56.1700 72° East 555 639 32,300 60 Climbing FlightAware
01:15 45.9020 -56.0510 72° East 555 639 32,300  Level FlightAware
01:16 45.9350 -55.9020 72° East 555 639 32,300 480 Level FlightAware
01:17 45.9710 -55.7120 75° East 561 646 33,000 480 Climbing FlightAware
01:18 46.0020 -55.5660 73° East 561 646 33,000 -120 Level FlightAware
01:18 46.0380 -55.3950 73° East 566 651 32,900 -120 Descending FlightAware
01:19 46.0690 -55.2460 73° East 569 655 32,900  Level FlightAware
01:20 46.1020 -55.0820 74° East 571 657 32,900  Level FlightAware
01:20 46.1330 -54.9340 73° East 571 657 32,900 60 Level FlightAware
01:21 46.1650 -54.7750 74° East 572 658 33,000  Climbing FlightAware
01:22 46.1970 -54.6140 74° East 573 659 32,900 -120 Descending FlightAware
01:22 46.2260 -54.4680 74° East 574 661 32,900  Level FlightAware
01:23 46.2560 -54.3160 74° East 576 663 32,900  Level FlightAware
01:24 46.2870 -54.1580 74° East 577 664 32,900  Level FlightAware
01:25 46.3170 -54.0050 74° East 578 665 32,900 60 Level FlightAware
01:25 46.3500 -53.8360 74° East 578 665 33,000  Climbing FlightAware
01:26 46.3780 -53.6860 75° East 578 665 32,900 -120 Descending FlightAware
01:27 46.4100 -53.5190 74° East 577 664 32,900  Level FlightAware
01:27 46.4370 -53.3740 75° East 575 662 32,900  Level FlightAware
01:28 46.4650 -53.2230 75° East 574 661 32,900  Level FlightAware
01:29 46.4970 -53.0530 75° East 574 661 32,900  Level FlightAware
01:29 46.5240 -52.9060 75° East 575 662 32,900  Level FlightAware
01:30 46.5540 -52.7420 75° East 575 662 32,900  Level FlightAware
01:31 46.5810 -52.5890 76° East 576 663 32,900  Level FlightAware
01:32 46.6080 -52.4410 75° East 576 663 32,900  Level FlightAware
01:32 46.6380 -52.2700 76° East 577 664 32,900  Level FlightAware
01:33 46.6610 -52.1380 76° East 575 662 32,900  Level FlightAware
01:34 46.6930 -51.9570 75° East 575 662 32,900  Level FlightAware
01:34 46.7190 -51.8030 76° East 574 661 32,900  Level FlightAware
01:35 46.7430 -51.6630 76° East 572 658 32,900  Level FlightAware
01:36 46.7720 -51.4950 76° East 572 658 32,900  Level FlightAware
01:36 46.7950 -51.3600 76° East 572 658 32,900  Level FlightAware
01:37 46.8160 -51.2330 76° East 572 658 32,900  Level FlightAware
01:38 46.8380 -51.1050 76° East 572 658 32,900  Level FlightAware
01:38 46.8600 -50.9770 76° East 572 658 32,900  Level FlightAware
01:39 46.8820 -50.8500 76° East 572 658 32,900  Level FlightAware
01:40 46.9090 -50.6900 76° East 572 658 32,900  Level FlightAware
01:41 46.9310 -50.5620 76° East 572 658 32,900  Level FlightAware
01:41 46.9520 -50.4340 76° East 572 658 32,900  Level FlightAware
01:42 46.9740 -50.3060 76° East 572 658 32,900 60 Level FlightAware
01:43 47.0000 -50.0000 62° Northeast 568 654 33,000  Climbing ETMS Enhanced Traffic Management System
01:43 47.0010 -50.1460 76° East 572 658 32,900 -240 Descending FlightAware
01:43 47.0333 -49.7833 62° Northeast 570 656 32,900  Level Gander Center
01:43 47.0230 -50.0180 76° East 572 658 32,900  Level FlightAware
01:44 47.1000 -49.6000 62° Northeast 580 667 32,900  Level Gander Center
01:44 47.0450 -49.8900 76° East 572 658 32,900  Level FlightAware
01:45 47.0670 -49.7620 76° East 572 658 32,900  Level FlightAware
01:45 47.1833 -49.3833 60° Northeast 580 667 32,900  Level Gander Center
01:45 47.0880 -49.6340 76° East 572 658 32,900  Level FlightAware
01:46 47.2500 -49.1667 66° East 580 667 32,900  Level Gander Center
01:47 47.3333 -48.9833 56° Northeast 580 667 32,900  Level Gander Center
01:48 47.4000 -48.7333 68° East 580 667 32,900  Level Gander Center
01:49 47.4667 -48.5500 62° Northeast 580 667 32,900  Level Gander Center
01:50 47.5500 -48.3333 60° Northeast 580 667 32,900  Level Gander Center
01:51 47.6167 -48.1000 67° East 600 690 32,900  Level Gander Center
01:52 47.7000 -47.8833 60° Northeast 590 679 32,900  Level Gander Center
01:53 47.7667 -47.6667 65° Northeast 580 667 32,900  Level Gander Center
01:54 47.8500 -47.4500 60° Northeast 580 667 32,900  Level Gander Center
01:55 47.9167 -47.2500 63° Northeast 590 679 32,900  Level Gander Center
01:56 47.9833 -47.0333 65° Northeast 590 679 32,900  Level Gander Center
01:57 48.0500 -46.8000 67° East 580 667 32,900  Level Gander Center
01:59 48.1594 -46.5273 59° Northeast  Level FlightAware Approximate
02:06 48.5951 -45.1496 65° Northeast  Level FlightAware Approximate
02:07 48.6545 -44.9497 66° East  Level FlightAware Approximate
02:08 48.7135 -44.7494 66° East  Level FlightAware Approximate
02:09 48.7722 -44.5486 66° East  Level FlightAware Approximate
02:10 48.8306 -44.3473 66° East  Level FlightAware Approximate
02:11 48.8885 -44.1455 66° East  Level FlightAware Approximate
02:12 48.9462 -43.9433 66° East  Level FlightAware Approximate
02:13 49.0034 -43.7406 67° East  Level FlightAware Approximate
02:14 49.0603 -43.5374 67° East  Level FlightAware Approximate
02:15 49.1169 -43.3338 67° East  Level FlightAware Approximate
02:16 49.1731 -43.1297 67° East  Level FlightAware Approximate
02:17 49.2289 -42.9251 67° East  Level FlightAware Approximate
02:18 49.2844 -42.7201 67° East  Level FlightAware Approximate
02:19 49.3402 -42.5151 67° East  Level FlightAware Approximate
02:20 49.3967 -42.3103 67° East  Level FlightAware Approximate
02:21 49.4528 -42.1050 67° East  Level FlightAware Approximate
02:22 49.5085 -41.8992 67° East  Level FlightAware Approximate
02:23 49.5639 -41.6929 67° East  Level FlightAware Approximate
02:24 49.6189 -41.4862 68° East  Level FlightAware Approximate
02:25 49.6735 -41.2790 68° East  Level FlightAware Approximate
02:26 49.7278 -41.0714 68° East  Level FlightAware Approximate
02:27 49.7817 -40.8633 68° East  Level FlightAware Approximate
02:28 49.8352 -40.6547 68° East  Level FlightAware Approximate
02:29 49.8883 -40.4457 68° East  Level FlightAware Approximate
02:30 49.9411 -40.2362 69° East  Level FlightAware Approximate
02:31 49.9935 -40.0262 69° East  Level FlightAware Approximate
02:31 50.0000 -40.0000 77° East 551 634 33,000  Level ETMS Enhanced Traffic Management System
02:32 50.0274 -39.8110 77° East  Level FlightAware Approximate
02:33 50.0583 -39.5943 77° East  Level FlightAware Approximate
02:34 50.0889 -39.3773 78° East  Level FlightAware Approximate
02:35 50.1191 -39.1601 78° East  Level FlightAware Approximate
02:36 50.1488 -38.9426 78° East  Level FlightAware Approximate
02:37 50.2859 -37.8955 79° East 551 634 33,000  Level FlightAware Transoceanic
02:38 50.3153 -37.6601 79° East 551 634 33,000  Level FlightAware Transoceanic
02:39 50.3442 -37.4245 79° East 551 634 33,000  Level FlightAware Transoceanic
02:40 50.3727 -37.1885 79° East 551 634 33,000  Level FlightAware Transoceanic
02:41 50.4007 -36.9523 80° East 551 634 33,000  Level FlightAware Transoceanic
02:42 50.4282 -36.7159 80° East 551 634 33,000  Level FlightAware Transoceanic
02:43 50.4552 -36.4791 80° East 551 634 33,000  Level FlightAware Transoceanic
02:44 50.4817 -36.2421 80° East 551 634 33,000  Level FlightAware Transoceanic
02:45 50.5078 -36.0048 80° East 551 634 33,000  Level FlightAware Transoceanic
02:46 50.5334 -35.7672 80° East 551 634 33,000  Level FlightAware Transoceanic
02:47 50.5584 -35.5294 81° East 551 634 33,000  Level FlightAware Transoceanic
02:48 50.5830 -35.2914 81° East 551 634 33,000  Level FlightAware Transoceanic
02:49 50.6072 -35.0531 81° East 551 634 33,000  Level FlightAware Transoceanic
02:50 50.6308 -34.8145 81° East 551 634 33,000  Level FlightAware Transoceanic
02:51 50.6539 -34.5757 81° East 551 634 33,000  Level FlightAware Transoceanic
02:52 50.6766 -34.3367 82° East 551 634 33,000  Level FlightAware Transoceanic
02:53 50.6988 -34.0975 82° East 551 634 33,000  Level FlightAware Transoceanic
02:54 50.7204 -33.8580 82° East 551 634 33,000  Level FlightAware Transoceanic
02:55 50.7416 -33.6183 82° East 551 634 33,000  Level FlightAware Transoceanic
02:56 50.7623 -33.3784 82° East 551 634 33,000  Level FlightAware Transoceanic
02:57 50.7825 -33.1383 83° East 551 634 33,000  Level FlightAware Transoceanic
02:58 50.8022 -32.8980 83° East 551 634 33,000  Level FlightAware Transoceanic
02:59 50.8214 -32.6575 83° East 551 634 33,000  Level FlightAware Transoceanic
03:00 50.8402 -32.4168 83° East 551 634 33,000  Level FlightAware Transoceanic
03:01 50.8584 -32.1759 83° East 551 634 33,000  Level FlightAware Transoceanic
03:02 50.8761 -31.9348 83° East 551 634 33,000  Level FlightAware Transoceanic
03:03 50.8933 -31.6935 84° East 551 634 33,000  Level FlightAware Transoceanic
03:04 50.9101 -31.4521 84° East 551 634 33,000  Level FlightAware Transoceanic
03:05 50.9263 -31.2105 84° East 551 634 33,000  Level FlightAware Transoceanic
03:06 50.9421 -30.9687 84° East 551 634 33,000  Level FlightAware Transoceanic
03:07 50.9573 -30.7267 84° East 551 634 33,000  Level FlightAware Transoceanic
03:08 50.9720 -30.4846 85° East 551 634 33,000  Level FlightAware Transoceanic
03:09 50.9863 -30.2424 85° East 551 634 33,000  Level FlightAware Transoceanic
03:10 50.9991 -30.0168 85° East  Level FlightAware Approximate
03:11 51.0115 -29.7911 85° East  Level FlightAware Approximate
03:12 51.0081 -29.8076 86° East  Level FlightAware Approximate
03:13 51.0172 -29.5815 86° East  Level FlightAware Approximate
03:13 51.0000 -30.0000 86° East 526 605 33,000  Level ETMS Enhanced Traffic Management System
03:14 51.0258 -29.3553 86° East  Level FlightAware Approximate
03:15 51.0340 -29.1290 87° East  Level FlightAware Approximate
03:16 51.0418 -28.9026 87° East  Level FlightAware Approximate
03:17 51.0491 -28.6761 87° East  Level FlightAware Approximate
03:18 51.0560 -28.4496 87° East  Level FlightAware Approximate
03:19 51.0707 -27.9099 88° East 526 605 33,000  Level FlightAware Transoceanic
03:20 51.0762 -27.6774 88° East 526 605 33,000  Level FlightAware Transoceanic
03:21 51.0813 -27.4447 88° East 526 605 33,000  Level FlightAware Transoceanic
03:22 51.0859 -27.2120 88° East 526 605 33,000  Level FlightAware Transoceanic
03:23 51.0901 -26.9793 88° East 526 605 33,000  Level FlightAware Transoceanic
03:24 51.0938 -26.7465 89° East 526 605 33,000  Level FlightAware Transoceanic
03:25 51.0970 -26.5137 89° East 526 605 33,000  Level FlightAware Transoceanic
03:26 51.0998 -26.2809 89° East 526 605 33,000  Level FlightAware Transoceanic
03:27 51.1021 -26.0480 89° East 526 605 33,000  Level FlightAware Transoceanic
03:28 51.1040 -25.8152 89° East 526 605 33,000  Level FlightAware Transoceanic
03:29 51.1054 -25.5823 90° East 526 605 33,000  Level FlightAware Transoceanic
03:30 51.1063 -25.3494 90° East 526 605 33,000  Level FlightAware Transoceanic
03:31 51.1067 -25.1165 90° East 526 605 33,000  Level FlightAware Transoceanic
03:32 51.1067 -24.8835 90° East 526 605 33,000  Level FlightAware Transoceanic
03:33 51.1063 -24.6506 90° East 526 605 33,000  Level FlightAware Transoceanic
03:34 51.1054 -24.4177 90° East 526 605 33,000  Level FlightAware Transoceanic
03:35 51.1040 -24.1848 91° East 526 605 33,000  Level FlightAware Transoceanic
03:36 51.1021 -23.9520 91° East 526 605 33,000  Level FlightAware Transoceanic
03:37 51.0998 -23.7191 91° East 526 605 33,000  Level FlightAware Transoceanic
03:38 51.0970 -23.4863 91° East 526 605 33,000  Level FlightAware Transoceanic
03:39 51.0938 -23.2535 91° East 526 605 33,000  Level FlightAware Transoceanic
03:40 51.0901 -23.0207 92° East 526 605 33,000  Level FlightAware Transoceanic
03:41 51.0859 -22.7880 92° East 526 605 33,000  Level FlightAware Transoceanic
03:42 51.0813 -22.5553 92° East 526 605 33,000  Level FlightAware Transoceanic
03:43 51.0762 -22.3226 92° East 526 605 33,000  Level FlightAware Transoceanic
03:44 51.0707 -22.0901 92° East 526 605 33,000  Level FlightAware Transoceanic
03:45 51.0647 -21.8575 92° East 526 605 33,000  Level FlightAware Transoceanic
03:46 51.0582 -21.6251 93° East 526 605 33,000  Level FlightAware Transoceanic
03:47 51.0513 -21.3927 93° East 526 605 33,000  Level FlightAware Transoceanic
03:48 51.0439 -21.1604 93° East 526 605 33,000  Level FlightAware Transoceanic
03:49 51.0360 -20.9281 93° East 526 605 33,000  Level FlightAware Transoceanic
03:50 51.0277 -20.6960 93° East 526 605 33,000  Level FlightAware Transoceanic
03:51 51.0189 -20.4639 94° East 526 605 33,000  Level FlightAware Transoceanic
03:52 51.0097 -20.2319 94° East 526 605 33,000 -60 Level FlightAware Transoceanic
03:53 51.0003 -20.0058 94° East  Level FlightAware Approximate
03:54 50.9903 -19.7799 94° East  Level FlightAware Approximate
03:55 50.9765 -19.7885 100° East  Level FlightAware Approximate
03:56 50.9512 -19.5657 100° East  Level FlightAware Approximate
03:57 50.9257 -19.3435 100° East  Level FlightAware Approximate
03:58 50.8996 -19.1216 100° East  Level FlightAware Approximate
03:59 50.8732 -18.8999 101° East  Level FlightAware Approximate
04:00 50.8463 -18.6785 101° East  Level FlightAware Approximate
04:01 50.8190 -18.4573 101° East  Level FlightAware Approximate
04:02 50.7914 -18.2365 101° East  Level FlightAware Approximate
04:03 50.7632 -18.0158 101° East  Level FlightAware Approximate
04:04 50.7347 -17.7954 101° East  Level FlightAware Approximate
04:05 50.7057 -17.5750 102° East  Level FlightAware Approximate
04:06 50.6763 -17.3548 102° East  Level FlightAware Approximate
04:07 50.6465 -17.1348 102° East  Level FlightAware Approximate
04:08 50.6163 -16.9152 102° East  Level FlightAware Approximate
04:09 50.5856 -16.6958 102° East  Level FlightAware Approximate
04:10 50.5546 -16.4768 102° East  Level FlightAware Approximate
04:11 50.5231 -16.2580 103° East  Level FlightAware Approximate
04:12 50.4912 -16.0395 103° East  Level FlightAware Approximate
04:13 50.4589 -15.8213 103° East  Level FlightAware Approximate
04:14 50.4262 -15.6034 103° East  Level FlightAware Approximate
04:15 50.3931 -15.3858 103° East  Level FlightAware Approximate
04:16 50.3596 -15.1685 104° East  Level FlightAware Approximate
04:17 50.3256 -14.9516 104° East  Level FlightAware Approximate
04:18 50.2910 -14.7351 104° East  Level FlightAware Approximate
04:19 50.2559 -14.5189 104° East  Level FlightAware Approximate
04:20 50.2204 -14.3030 104° East  Level FlightAware Approximate
04:21 50.1845 -14.0874 104° East  Level FlightAware Approximate
04:22 50.1483 -13.8722 105° East  Level FlightAware Approximate
04:23 50.1116 -13.6573 105° East  Level FlightAware Approximate
04:24 50.0745 -13.4427 105° East  Level FlightAware Approximate
04:25 50.0371 -13.2284 105° East  Level FlightAware Approximate
04:26 49.9992 -13.0145 105° East  Level FlightAware Approximate
04:27 49.9609 -12.8010 105° East  Level FlightAware Approximate
04:28 49.9223 -12.5877 106° East  Level FlightAware Approximate
04:29 49.8833 -12.3748 106° East  Level FlightAware Approximate
04:30 49.8439 -12.1623 106° East  Level FlightAware Approximate
04:31 49.8041 -11.9501 106° East  Level FlightAware Approximate
04:32 49.7639 -11.7383 106° East  Level FlightAware Approximate
04:33 49.7233 -11.5268 106° East  Level FlightAware Approximate
04:34 49.6823 -11.3156 107° East  Level FlightAware Approximate
04:35 49.6410 -11.1048 107° East  Level FlightAware Approximate
04:36 49.5992 -10.8944 107° East  Level FlightAware Approximate
04:37 49.5571 -10.6844 107° East  Level FlightAware Approximate
04:38 49.5153 -10.4744 107° East  Level FlightAware Approximate
04:39 49.4740 -10.2643 107° East  Level FlightAware Approximate
04:40 49.4324 -10.0546 107° East  Level FlightAware Approximate
04:41 49.3903 -9.8452 107° East  Level FlightAware Approximate
04:42 49.3479 -9.6362 107° East  Level FlightAware Approximate
04:43 49.3051 -9.4275 107° East  Level FlightAware Approximate
04:44 49.2619 -9.2192 108° East  Level FlightAware Approximate
04:45 49.2183 -9.0113 108° East  Level FlightAware Approximate
04:46 49.1744 -8.8038 108° East  Level FlightAware Approximate
04:46 49.2143 -8.9867 108° East 500 575 31,400  Level FlightAware UK
04:47 49.1301 -8.5966 108° East  Level FlightAware Approximate
04:47 49.2062 -8.9291 102° East 498 573 31,400  Level FlightAware UK
04:47 49.1968 -8.8704 104° East 498 573 31,400  Level FlightAware UK
04:47 49.1873 -8.8116 104° East 498 573 31,400  Level FlightAware UK
04:48 49.1778 -8.7530 104° East 498 573 31,400  Level FlightAware UK
04:48 49.1683 -8.6943 104° East 498 573 31,400  Level FlightAware UK
04:48 49.1588 -8.6357 104° East 498 573 31,400  Level FlightAware UK
04:49 49.1492 -8.5769 104° East 498 573 31,400 2,400 Level FlightAware UK
04:49 49.1460 -8.5100 104° East 478 550 32,900  Climbing FlightAware
04:49 49.1296 -8.4596 104° East 500 575 31,400 -2,580 Descending FlightAware UK
04:49 49.1198 -8.4009 104° East 500 575 31,400 3,900 Level FlightAware UK
04:50 49.1250 -8.3800 104° East 477 549 32,900  Climbing FlightAware
04:50 49.1066 -8.3227 104° East 502 578 31,400 -2,460 Descending FlightAware UK
04:50 49.0967 -8.2642 104° East 500 575 31,400 3,420 Level FlightAware UK
04:50 49.1000 -8.2330 104° East 475 547 32,900  Climbing FlightAware
04:51 49.0837 -8.1862 104° East 496 571 31,400 -2,700 Descending FlightAware UK
04:51 49.0737 -8.1279 105° East 498 573 31,400 3,960 Level FlightAware UK
04:51 49.0760 -8.1030 105° East 476 548 33,000  Climbing FlightAware
04:51 49.0530 -8.0542 105° East 496 571 31,400 -2,700 Descending FlightAware UK
04:52 49.0375 -7.9980 113° Southeast 498 573 31,400 3,300 Level FlightAware UK
04:52 49.0360 -7.9600 113° Southeast 477 549 32,900  Climbing FlightAware
04:52 49.0158 -7.9247 113° Southeast 496 571 31,400 -2,760 Descending FlightAware UK
04:52 48.9988 -7.8699 115° Southeast 496 571 31,400 3,600 Level FlightAware UK
04:52 48.9980 -7.8370 115° Southeast 479 551 32,900  Climbing FlightAware
04:53 48.9762 -7.7969 115° Southeast 496 571 31,400 -2,580 Descending FlightAware UK
04:53 48.9594 -7.7419 115° Southeast 498 573 31,400 3,900 Level FlightAware UK
04:53 48.9620 -7.7170 115° Southeast 480 552 32,900  Climbing FlightAware
04:53 48.9371 -7.6687 115° Southeast 498 573 31,400 -2,460 Descending FlightAware UK
04:54 48.9201 -7.6138 115° Southeast 498 573 31,400 3,420 Level FlightAware UK
04:54 48.9200 -7.5800 115° Southeast 480 552 32,900  Climbing FlightAware
04:54 48.8974 -7.5407 115° Southeast 500 575 31,400 -2,700 Descending FlightAware UK
04:54 48.8803 -7.4859 115° Southeast 500 575 31,400 3,720 Level FlightAware UK
04:54 48.8820 -7.4580 115° Southeast 480 552 32,900  Climbing FlightAware
04:55 48.8576 -7.4129 115° Southeast 500 575 31,400 -2,520 Descending FlightAware UK
04:55 48.8406 -7.3581 115° Southeast 498 573 31,400 4,080 Level FlightAware UK
04:55 48.8440 -7.3370 115° Southeast 479 551 32,900  Climbing FlightAware
04:55 48.8180 -7.2852 115° Southeast 496 571 31,400 -2,400 Descending FlightAware UK
04:56 48.8012 -7.2306 115° Southeast 498 573 31,400 3,600 Level FlightAware UK
04:56 48.8010 -7.1980 115° Southeast 479 551 32,900  Climbing FlightAware
04:56 48.7787 -7.1577 115° Southeast 498 573 31,400 -2,580 Descending FlightAware UK
04:56 48.7618 -7.1031 115° Southeast 498 573 31,400 3,900 Level FlightAware UK
04:57 48.7640 -7.0760 115° Southeast 480 552 32,900  Climbing FlightAware
04:57 48.7402 -7.0296 115° Southeast 500 575 31,400 -2,460 Descending FlightAware UK
04:57 48.7255 -6.9737 112° Southeast 500 575 31,400 3,420 Level FlightAware UK
04:57 48.7270 -6.9410 112° Southeast 479 551 32,900  Climbing FlightAware
04:58 48.7061 -6.8991 112° Southeast 496 571 31,400 -2,580 Descending FlightAware UK
04:58 48.6908 -6.8428 112° Southeast 496 571 31,400  Level FlightAware UK
04:58 48.6754 -6.7874 113° Southeast 496 571 31,400  Level FlightAware UK
04:58 48.6600 -6.7320 113° Southeast 496 571 31,400  Level FlightAware UK
04:59 48.6444 -6.6766 113° Southeast 496 571 31,400  Level FlightAware UK
04:59 48.6286 -6.6215 113° Southeast 496 571 31,400  Level FlightAware UK
04:59 48.6127 -6.5662 114° Southeast 498 573 31,400  Level FlightAware UK
05:00 48.5968 -6.5110 113° Southeast 498 573 31,400 3,600 Level FlightAware UK
05:00 48.5990 -6.4850 113° Southeast 480 552 32,900  Climbing FlightAware
05:00 48.5757 -6.4376 113° Southeast 496 571 31,400 -2,580 Descending FlightAware UK
05:00 48.5599 -6.3825 113° Southeast 496 571 31,400 3,180 Level FlightAware UK
05:01 48.5600 -6.3460 113° Southeast 480 552 32,900  Climbing FlightAware
05:01 48.5336 -6.2906 113° Southeast 496 571 31,400 -2,400 Descending FlightAware UK
05:01 48.5178 -6.2355 113° Southeast 496 571 31,400 4,500 Level FlightAware UK
05:01 48.5270 -6.2300 113° Southeast 480 552 32,900  Climbing FlightAware
05:01 48.5019 -6.1804 113° Southeast 496 571 31,400 -2,700 Descending FlightAware UK
05:02 48.4859 -6.1254 114° Southeast 498 573 31,400 3,060 Level FlightAware UK
05:02 48.4880 -6.0950 114° Southeast 480 552 32,900  Climbing FlightAware
05:02 48.4592 -6.0337 114° Southeast 498 573 31,400  Descending FlightAware UK
05:03 48.4490 -5.9620 114° Southeast 481 554 32,900  Climbing FlightAware
05:03 48.4271 -5.9235 114° Southeast 498 573 31,400 -2,760 Descending FlightAware UK
05:03 48.4111 -5.8684 114° Southeast 498 573 31,400 3,600 Level FlightAware UK
05:03 48.4140 -5.8400 114° Southeast 481 554 32,900  Climbing FlightAware
05:04 48.3896 -5.7944 114° Southeast 502 578 31,400 -2,580 Descending FlightAware UK
05:04 48.3735 -5.7395 114° Southeast 500 575 31,400 3,180 Level FlightAware UK
05:04 48.3710 -5.6930 114° Southeast 479 551 32,900  Climbing FlightAware
05:04 48.3466 -5.6482 114° Southeast 496 571 31,400 -2,400 Descending FlightAware UK
05:05 48.3304 -5.5937 114° Southeast 500 575 31,400 4,500 Level FlightAware UK
05:05 48.3340 -5.5690 114° Southeast 479 551 32,900  Climbing FlightAware
05:05 48.3142 -5.5391 114° Southeast 500 575 31,400 -2,700 Descending FlightAware UK
05:05 48.2980 -5.4845 114° Southeast 500 575 31,400 3,060 Level FlightAware UK
05:05 48.2950 -5.4350 114° Southeast 479 551 32,900  Climbing FlightAware
05:06 48.2656 -5.3755 114° Southeast 500 575 31,400  Descending FlightAware UK
05:06 48.2580 -5.3120 114° Southeast 478 550 32,900  Climbing FlightAware
05:06 48.2386 -5.2850 114° Southeast 500 575 31,400 -2,760 Descending FlightAware UK
05:07 48.2223 -5.2307 114° Southeast 500 575 31,400 3,600 Level FlightAware UK
05:07 48.2240 -5.1950 114° Southeast 477 549 32,900 1,680 Climbing FlightAware
05:08 48.1810 -5.0550 115° Southeast 476 548 32,900  Level FlightAware
05:08 48.1450 -4.9350 114° Southeast 478 550 32,900  Level FlightAware
05:09 48.1080 -4.8120 114° Southeast 478 550 32,900  Level FlightAware
05:10 48.0680 -4.6800 114° Southeast 477 549 32,900  Level FlightAware
05:10 48.0270 -4.5440 114° Southeast 477 549 32,900  Level FlightAware
05:11 47.9890 -4.4240 115° Southeast 476 548 32,900 360 Level FlightAware
05:12 47.9520 -4.3030 115° Southeast 480 552 33,400 1,020 Climbing FlightAware
05:12 47.9120 -4.1730 115° Southeast 478 550 34,400 1,020 Climbing FlightAware
05:13 47.8750 -4.0560 115° Southeast 478 550 34,900 300 Climbing FlightAware
05:14 47.8330 -3.9200 115° Southeast 476 548 34,900  Level FlightAware
05:15 47.7940 -3.7990 116° Southeast 474 545 34,900  Level FlightAware
05:15 47.7570 -3.6820 115° Southeast 473 544 34,900  Level FlightAware
05:16 47.7150 -3.5510 115° Southeast 474 545 34,900  Level FlightAware
05:17 47.6770 -3.4320 115° Southeast 473 544 34,900 60 Level FlightAware
05:17 47.6400 -3.3160 115° Southeast 473 544 35,000  Climbing FlightAware
05:18 47.5960 -3.1800 116° Southeast 473 544 34,900 -120 Descending FlightAware
05:19 47.5600 -3.0690 116° Southeast 473 544 34,900  Level FlightAware
05:19 47.5160 -2.9340 116° Southeast 474 545 34,900  Level FlightAware
05:20 47.4790 -2.8200 116° Southeast 473 544 34,900  Level FlightAware
05:21 47.4350 -2.6860 116° Southeast 474 545 34,900 60 Level FlightAware
05:22 47.3960 -2.5690 116° Southeast 475 547 35,000  Climbing FlightAware
05:22 47.3580 -2.4550 116° Southeast 476 548 34,900 -120 Descending FlightAware
05:23 47.3140 -2.3240 116° Southeast 477 549 34,900  Level FlightAware
05:24 47.2780 -2.2100 115° Southeast 477 549 34,900  Level FlightAware
05:24 47.2330 -2.0730 116° Southeast 476 548 34,900  Level FlightAware
05:25 47.1960 -1.9560 115° Southeast 476 548 34,900  Level FlightAware
05:26 47.1580 -1.8370 115° Southeast 477 549 34,900 60 Level FlightAware
05:26 47.1200 -1.7200 115° Southeast 477 549 35,000  Climbing FlightAware
05:27 47.0790 -1.5940 116° Southeast 475 547 34,900 -120 Descending FlightAware
05:28 47.0390 -1.4780 117° Southeast 474 545 34,900  Level FlightAware
05:29 46.9920 -1.3450 117° Southeast 475 547 34,900  Level FlightAware
05:29 46.9520 -1.2320 117° Southeast 477 549 34,900  Level FlightAware
05:30 46.9070 -1.1060 118° Southeast 477 549 34,900  Level FlightAware
05:31 46.8660 -0.9920 118° Southeast 479 551 34,900  Level FlightAware
05:31 46.8250 -0.8770 117° Southeast 478 550 34,900  Level FlightAware
05:32 46.7820 -0.7440 115° Southeast 478 550 34,900 60 Level FlightAware
05:33 46.7440 -0.6240 115° Southeast 479 551 35,000  Climbing FlightAware
05:33 46.7060 -0.4980 114° Southeast 478 550 34,900 -120 Descending FlightAware
05:34 46.6790 -0.4070 113° Southeast 478 550 34,900  Level FlightAware
05:35 46.6500 -0.3060 113° Southeast 478 550 34,900  Level FlightAware
05:36 46.5970 -0.1460 116° Southeast 473 544 34,900  Level FlightAware
05:36 46.5620 -0.0250 113° Southeast 473 544 34,900  Level FlightAware
05:37 46.5370 0.1070 105° East 473 544 34,900  Level FlightAware
05:38 46.5190 0.2430 101° East 478 550 34,900  Level FlightAware
05:38 46.5020 0.3490 103° East 478 550 34,900  Level FlightAware
05:39 46.4850 0.4560 103° East 478 550 34,900  Level FlightAware
05:40 46.4680 0.5620 103° East 478 550 34,900  Level FlightAware
05:40 46.4110 0.7460 114° Southeast 34,900  Level FlightAware
05:42 46.3020 1.0460 118° Southeast 35,000  Climbing FlightAware
05:43 46.2570 1.1700 118° Southeast 458 527 34,900 -120 Descending FlightAware
05:44 46.2180 1.2790 117° Southeast 458 527 34,900  Level FlightAware
05:45 46.1610 1.4300 119° Southeast 455 524 34,900  Level FlightAware
05:45 46.1150 1.5520 119° Southeast 453 521 34,900  Level FlightAware
05:46 46.0680 1.6790 118° Southeast 457 526 34,900  Level FlightAware
05:47 46.0360 1.7660 118° Southeast 458 527 34,900  Level FlightAware
05:47 45.9980 1.8700 118° Southeast 459 528 34,900  Level FlightAware
05:48 45.9450 2.0100 119° Southeast 457 526 34,900  Level FlightAware
05:49 45.8990 2.1330 118° Southeast 455 524 34,900  Level FlightAware
05:50 45.8600 2.2370 118° Southeast 448 516 34,900 60 Level FlightAware
05:50 45.8140 2.3570 119° Southeast 446 513 35,000 60 Climbing FlightAware
05:51 45.7740 2.4630 118° Southeast 447 514 35,000 -120 Level FlightAware
05:51 45.7460 2.5360 119° Southeast 448 516 34,900 -120 Descending FlightAware
05:52 45.6950 2.6690 119° Southeast 449 517 34,900  Level FlightAware
05:53 45.6500 2.7880 118° Southeast 452 520 34,900  Level FlightAware
05:54 45.6090 2.8920 119° Southeast 455 524 34,900 60 Level FlightAware
05:54 45.5640 3.0100 119° Southeast 460 529 35,000  Climbing FlightAware
05:55 45.5240 3.1130 119° Southeast 462 532 34,900 -120 Descending FlightAware
05:56 45.4740 3.2390 119° Southeast 467 537 34,900  Level FlightAware
05:57 45.4350 3.3400 119° Southeast 470 541 34,900  Level FlightAware
05:57 45.3890 3.4560 119° Southeast 471 542 34,900  Level FlightAware
05:58 45.3440 3.5700 119° Southeast 468 539 34,900 60 Level FlightAware
05:59 45.3000 3.6810 119° Southeast 468 539 35,000  Climbing FlightAware
05:59 45.2520 3.8010 120° Southeast 466 536 34,900 -120 Descending FlightAware
06:00 45.2070 3.9000 123° Southeast 463 533 34,900  Level FlightAware
06:01 45.1520 4.0160 124° Southeast 467 537 34,900  Level FlightAware
06:01 45.1040 4.1210 123° Southeast 467 537 34,900  Level FlightAware
06:02 45.0560 4.2250 123° Southeast 468 539 34,900  Level FlightAware
06:03 45.0040 4.3370 123° Southeast 468 539 34,900  Level FlightAware
06:04 44.9560 4.4410 123° Southeast 467 537 34,900 60 Level FlightAware
06:04 44.9090 4.5410 124° Southeast 472 543 35,000  Climbing FlightAware
06:05 44.8530 4.6600 124° Southeast 479 551 34,900 -120 Descending FlightAware
06:06 44.8040 4.7650 123° Southeast 480 552 34,900  Level FlightAware
06:06 44.7510 4.8770 124° Southeast 480 552 34,900  Level FlightAware
06:07 44.7000 4.9840 124° Southeast 480 552 34,900  Level FlightAware
06:08 44.6520 5.0850 124° Southeast 478 550 34,900  Level FlightAware
06:08 44.5960 5.2020 124° Southeast 480 552 34,900  Level FlightAware
06:09 44.5480 5.3040 123° Southeast 483 556 34,900  Level FlightAware
06:10 44.4920 5.4200 124° Southeast 487 560 34,900  Level FlightAware
06:11 44.4410 5.5260 124° Southeast 486 559 34,900  Level FlightAware
06:11 44.3810 5.6480 125° Southeast 487 560 34,900  Level FlightAware
06:12 44.3290 5.7520 125° Southeast 488 562 34,900  Level FlightAware
06:13 44.2820 5.8460 125° Southeast 487 560 34,900  Level FlightAware
06:13 44.2210 5.9690 125° Southeast 487 560 34,900  Level FlightAware
06:14 44.1710 6.0680 125° Southeast 486 559 34,900  Level FlightAware
06:15 44.1200 6.1690 125° Southeast 485 558 34,900  Level FlightAware
06:15 44.0610 6.2850 125° Southeast 481 554 34,900  Level FlightAware
06:16 44.0070 6.3910 125° Southeast 480 552 34,900  Level FlightAware
06:17 43.9560 6.4920 125° Southeast 481 554 34,900  Level FlightAware
06:18 43.9030 6.5970 125° Southeast 481 554 34,900  Level FlightAware
06:18 43.8580 6.6850 125° Southeast 485 558 34,900  Level FlightAware
06:19 43.8000 6.8110 122° Southeast 495 570 34,900  Level FlightAware
06:20 43.7440 6.9370 122° Southeast 499 574 34,900  Level FlightAware
06:20 43.6980 7.0390 122° Southeast 501 577 34,900  Level FlightAware
06:21 43.6500 7.1480 121° Southeast 501 577 34,900  Level FlightAware
06:22 43.5960 7.2720 121° Southeast 501 577 34,900  Level FlightAware
06:22 43.5460 7.3820 122° Southeast 502 578 34,900  Level FlightAware
06:23 43.4910 7.5060 121° Southeast 502 578 34,900  Level FlightAware
06:24 43.4420 7.6160 122° Southeast 502 578 34,900  Level FlightAware
06:25 43.3880 7.7360 122° Southeast 500 575 34,900  Level FlightAware
06:25 43.3320 7.8600 122° Southeast 498 573 34,900  Level FlightAware
06:26 43.2830 7.9660 122° Southeast 498 573 34,900  Level FlightAware
06:27 43.2340 8.0740 122° Southeast 497 572 34,900  Level FlightAware
06:27 43.1850 8.1820 122° Southeast 497 572 34,900  Level FlightAware
06:28 43.1320 8.2980 122° Southeast 497 572 34,900  Level FlightAware
06:29 43.0770 8.4180 122° Southeast 497 572 34,900  Level FlightAware
06:29 43.0270 8.5260 122° Southeast 498 573 34,900  Level FlightAware
06:30 42.9760 8.6350 123° Southeast 495 570 34,900  Level FlightAware
06:31 42.9310 8.7330 122° Southeast 495 570 34,900  Level FlightAware
06:32 42.8790 8.8450 122° Southeast 497 572 34,900  Level FlightAware
06:32 42.8280 8.9540 123° Southeast 503 579 34,900  Level FlightAware
06:33 42.7700 9.0760 123° Southeast 506 582 34,900  Level FlightAware
06:34 42.7130 9.1990 122° Southeast 509 586 34,900  Level FlightAware
06:34 42.6790 9.3020 114° Southeast 518 596 34,900 60 Level FlightAware
06:35 42.6380 9.4370 112° Southeast 516 594 35,000  Climbing FlightAware
06:36 42.5960 9.5720 113° Southeast 517 595 34,900 -120 Descending FlightAware
06:36 42.5660 9.6770 111° Southeast 516 594 34,900  Level FlightAware
06:37 42.5280 9.8100 111° Southeast 514 592 34,900 60 Level FlightAware
06:38 42.4860 9.9460 113° Southeast 506 582 35,000  Climbing FlightAware
06:39 42.4330 10.0530 124° Southeast 503 579 34,900 -120 Descending FlightAware
06:39 42.3740 10.1710 124° Southeast 507 583 34,900  Level FlightAware
06:40 42.3230 10.2770 123° Southeast 508 585 34,900  Level FlightAware
06:41 42.2730 10.3850 122° Southeast 508 585 34,900  Level FlightAware
06:41 42.2140 10.5030 124° Southeast 507 583 34,900  Level FlightAware
06:42 42.1610 10.6060 125° Southeast 509 586 34,900  Level FlightAware
06:43 42.1010 10.7240 124° Southeast 511 588 34,900  Level FlightAware
06:43 42.0480 10.8280 124° Southeast 511 588 34,900  Level FlightAware
06:44 41.9930 10.9360 124° Southeast 512 589 34,900  Level FlightAware
06:45 41.9340 11.0530 124° Southeast 514 592 34,900  Level FlightAware
06:46 41.8790 11.1590 125° Southeast 514 592 34,900  Level FlightAware
06:46 41.8180 11.2770 125° Southeast 514 592 34,900  Level FlightAware
06:47 41.7640 11.3820 125° Southeast 515 593 34,900  Level FlightAware
06:48 41.7030 11.4990 125° Southeast 515 593 34,900  Level FlightAware
06:48 41.6490 11.6030 125° Southeast 515 593 34,900  Level FlightAware
06:49 41.5940 11.7080 125° Southeast 511 588 34,900  Level FlightAware
06:50 41.5320 11.8250 125° Southeast 513 590 34,900  Level FlightAware
06:50 41.4780 11.9290 125° Southeast 513 590 34,900  Level FlightAware
06:51 41.4150 12.0470 125° Southeast 514 592 34,900  Level FlightAware
06:52 41.3600 12.1510 125° Southeast 515 593 34,900  Level FlightAware
06:54 41.2194 12.3974 127° Southeast  Level FlightAware Approximate
06:55 41.1331 12.5477 127° Southeast  Level FlightAware Approximate
06:56 41.0466 12.6976 127° Southeast  Level FlightAware Approximate
06:57 40.9599 12.8472 127° Southeast  Level FlightAware Approximate
06:58 40.8851 13.0136 107° East  Level FlightAware Approximate
06:59 40.8428 13.1932 107° East  Level FlightAware Approximate
07:00 40.8003 13.3727 107° East  Level FlightAware Approximate
07:01 40.7574 13.5519 107° East  Level FlightAware Approximate
07:01 40.6820 13.6280 107° East 532 612 34,900  Level FlightAware
07:01 40.6260 13.7490 121° Southeast 534 615 34,900  Level FlightAware
07:02 40.5750 13.8600 121° Southeast 536 617 34,900  Level FlightAware
07:03 40.5250 13.9690 121° Southeast 537 618 34,900  Level FlightAware
07:04 40.4630 14.1030 121° Southeast 538 619 34,900  Level FlightAware
07:04 40.4120 14.2140 121° Southeast 538 619 34,900  Level FlightAware
07:05 40.3600 14.3250 122° Southeast 538 619 34,900  Level FlightAware
07:06 40.3020 14.4480 122° Southeast 540 621 34,900  Level FlightAware
07:06 40.2500 14.5580 122° Southeast 542 624 34,900  Level FlightAware
07:07 40.1890 14.6880 122° Southeast 545 627 34,900  Level FlightAware
07:08 40.1350 14.8010 122° Southeast 549 632 34,900  Level FlightAware
07:08 40.0810 14.9140 122° Southeast 552 635 34,900  Level FlightAware
07:09 40.0230 15.0370 122° Southeast 556 640 34,900  Level FlightAware
07:10 39.9690 15.1490 122° Southeast 560 644 34,900  Level FlightAware
07:11 39.9050 15.2810 122° Southeast 567 652 34,900  Level FlightAware
07:11 39.8470 15.4010 122° Southeast 571 657 34,900  Level FlightAware
07:12 39.7910 15.5170 122° Southeast 573 659 34,900 540 Level FlightAware
07:13 39.7310 15.6430 122° Southeast 582 670 35,700 1,200 Climbing FlightAware
07:13 39.6860 15.7750 114° Southeast 585 673 36,600 960 Climbing FlightAware
07:14 39.6410 15.9060 114° Southeast 589 678 37,000 180 Climbing FlightAware
07:15 39.5920 16.0500 114° Southeast 589 678 36,900 -120 Descending FlightAware
07:15 39.5490 16.1750 114° Southeast 588 677 36,900  Level FlightAware
07:16 39.4970 16.3250 114° Southeast 589 678 36,900  Level FlightAware
07:17 39.4520 16.4530 114° Southeast 589 678 36,900  Level FlightAware
07:18 39.4030 16.5950 114° Southeast 589 678 36,900  Level FlightAware
07:18 39.3580 16.7220 115° Southeast 590 679 36,900  Level FlightAware
07:19 39.3130 16.8510 114° Southeast 588 677 36,900  Level FlightAware
07:20 39.2610 16.9990 114° Southeast 588 677 36,900  Level FlightAware
07:20 39.2370 17.0670 114° Southeast 588 677 36,900  Level FlightAware
07:21 39.1820 17.2200 115° Southeast 588 677 36,900  Level FlightAware
07:22 39.1340 17.3540 115° Southeast 588 677 36,900  Level FlightAware
07:22 39.0930 17.4680 115° Southeast 589 678 36,900  Level FlightAware
07:23 39.0410 17.6130 115° Southeast 588 677 36,900  Level FlightAware
07:24 38.9930 17.7460 115° Southeast 588 677 36,900  Level FlightAware
07:24 38.9510 17.8620 115° Southeast 588 677 36,900  Level FlightAware
07:25 38.8960 18.0110 115° Southeast 590 679 36,900  Level FlightAware
07:26 38.8510 18.1350 115° Southeast 589 678 36,900  Level FlightAware
07:27 38.7900 18.2990 115° Southeast 589 678 36,900  Level FlightAware
07:27 38.7550 18.3930 115° Southeast 590 679 36,900  Level FlightAware
07:28 38.7050 18.5280 115° Southeast 590 679 36,900  Level FlightAware
07:29 38.6540 18.6620 116° Southeast 591 680 36,900  Level FlightAware
07:29 38.6070 18.7870 116° Southeast 591 680 36,900  Level FlightAware
07:30 38.5540 18.9440 113° Southeast 596 686 36,900  Level FlightAware
07:31 38.5190 19.0620 111° Southeast 595 685 36,900  Level FlightAware
07:31 38.4850 19.1730 111° Southeast 595 685 36,900  Level FlightAware
07:32 38.4320 19.3530 111° Southeast 596 686 36,900  Level FlightAware
07:33 38.3930 19.4820 111° Southeast 595 685 36,900  Level FlightAware
07:34 38.3510 19.6190 111° Southeast 594 684 36,900  Level FlightAware
07:34 38.3030 19.7760 111° Southeast 594 684 36,900  Level FlightAware
07:35 38.2630 19.9070 111° Southeast 594 684 36,900  Level FlightAware
07:36 38.2310 20.0120 111° Southeast 594 684 36,900  Level FlightAware
07:36 38.1680 20.2160 111° Southeast 593 682 36,900  Level FlightAware
07:37 38.1240 20.3580 111° Southeast 588 677 36,900  Level FlightAware
07:38 38.0670 20.5390 112° Southeast 589 678 36,900  Level FlightAware
07:39 38.0170 20.6950 112° Southeast 590 679 36,900  Level FlightAware
07:40 37.9700 20.8460 112° Southeast 590 679 36,900  Level FlightAware
07:40 37.9350 20.9610 111° Southeast 590 679 36,900  Level FlightAware
07:41 37.8830 21.1170 113° Southeast 591 680 36,900  Level FlightAware
07:42 37.8440 21.2380 112° Southeast 591 680 36,900  Level FlightAware
07:42 37.7940 21.3910 112° Southeast 590 679 36,900  Level FlightAware
07:43 37.7520 21.5200 112° Southeast 590 679 36,900  Level FlightAware
07:44 37.7080 21.6570 112° Southeast 589 678 36,900  Level FlightAware
07:45 37.6660 21.7840 113° Southeast 589 678 36,900  Level FlightAware
07:45 37.6160 21.9350 113° Southeast 589 678 36,900  Level FlightAware
07:46 37.5770 22.0540 112° Southeast 589 678 36,900  Level FlightAware
07:47 37.5330 22.1840 113° Southeast 587 676 36,900  Level FlightAware
07:47 37.4890 22.3170 113° Southeast 585 673 36,900  Level FlightAware
07:48 37.4450 22.4490 113° Southeast 583 671 36,900 60 Level FlightAware
07:49 37.3960 22.5920 113° Southeast 578 665 37,000  Climbing FlightAware
07:49 37.3540 22.7160 113° Southeast 576 663 36,900 -120 Descending FlightAware
07:50 37.3140 22.8330 113° Southeast 573 659 36,900  Level FlightAware
07:51 37.2680 22.9690 113° Southeast 570 656 36,900 60 Level FlightAware
07:52 37.2250 23.0950 113° Southeast 572 658 37,000  Climbing FlightAware
07:52 37.1760 23.2350 114° Southeast 571 657 36,900 -120 Descending FlightAware
07:53 37.1340 23.3570 113° Southeast 570 656 36,900  Level FlightAware
07:54 37.0940 23.4710 114° Southeast 568 654 36,900  Level FlightAware
07:54 37.0460 23.6090 114° Southeast 565 650 36,900  Level FlightAware
07:55 37.0040 23.7280 114° Southeast 563 648 36,900  Level FlightAware
07:56 36.9570 23.8630 114° Southeast 561 646 36,900  Level FlightAware
07:56 36.9140 23.9840 114° Southeast 560 644 36,900  Level FlightAware
07:57 36.8680 24.1130 114° Southeast 560 644 36,900  Level FlightAware
07:58 36.8260 24.2320 114° Southeast 559 643 36,900  Level FlightAware
07:59 36.7780 24.3660 114° Southeast 559 643 36,900  Level FlightAware
07:59 36.7350 24.4840 114° Southeast 559 643 36,900  Level FlightAware
08:00 36.6780 24.6440 114° Southeast 559 643 36,900  Level FlightAware
08:01 36.6290 24.7790 114° Southeast 559 643 36,900  Level FlightAware
08:02 36.5870 24.8920 115° Southeast 560 644 36,900  Level FlightAware
08:02 36.5390 25.0230 114° Southeast 560 644 36,900  Level FlightAware
08:03 36.5020 25.1260 114° Southeast 561 646 36,900  Level FlightAware
08:04 36.4530 25.2570 115° Southeast 560 644 36,900  Level FlightAware
08:04 36.4050 25.3880 114° Southeast 560 644 36,900  Level FlightAware
08:05 36.3600 25.5100 115° Southeast 559 643 36,900  Level FlightAware
08:06 36.3110 25.6410 115° Southeast 560 644 36,900  Level FlightAware
08:07 36.2670 25.7600 115° Southeast 560 644 36,900  Level FlightAware
08:07 36.2240 25.8740 115° Southeast 560 644 36,900  Level FlightAware
08:08 36.1850 25.9800 114° Southeast 560 644 36,900  Level FlightAware
08:09 36.1500 26.0800 113° Southeast 560 644 36,900  Level FlightAware
08:09 36.1050 26.2040 114° Southeast 560 644 36,900  Level FlightAware
08:10 36.0410 26.3600 117° Southeast 561 646 36,900  Level FlightAware
08:11 36.0030 26.4590 115° Southeast 561 646 36,900  Level FlightAware
08:11 35.9660 26.5580 115° Southeast 561 646 36,900  Level FlightAware
08:12 35.9290 26.6570 115° Southeast 561 646 36,900  Level FlightAware
08:13 35.8560 26.8400 116° Southeast 560 644 36,900  Level FlightAware
08:13 35.8220 26.9320 114° Southeast 560 644 36,900  Level FlightAware
08:14 35.7670 27.0730 116° Southeast 558 642 36,900  Level FlightAware
08:15 35.7300 27.1710 115° Southeast 558 642 36,900  Level FlightAware
08:16 35.6930 27.2690 115° Southeast 558 642 36,900  Level FlightAware
08:16 35.6470 27.3920 115° Southeast 558 642 36,900  Level FlightAware
08:17 35.6090 27.4900 115° Southeast 558 642 36,900  Level FlightAware
08:18 35.5720 27.5880 115° Southeast 558 642 36,900  Level FlightAware
08:18 35.5350 27.6850 115° Southeast 558 642 36,900  Level FlightAware
08:19 35.4980 27.7830 115° Southeast 558 642 36,900  Level FlightAware
08:20 35.4610 27.8810 115° Southeast 558 642 36,900  Level FlightAware
08:21 35.3370 28.1600 119° Southeast 546 628 36,900  Level FlightAware
08:21 35.2920 28.2700 117° Southeast 545 627 36,900  Level FlightAware
08:22 35.2420 28.3930 116° Southeast 542 624 36,900  Level FlightAware
08:23 35.1990 28.5020 116° Southeast 539 620 36,900  Level FlightAware
08:23 35.1560 28.6070 117° Southeast 535 616 36,900  Level FlightAware
08:24 35.1070 28.7270 116° Southeast 529 609 36,900  Level FlightAware
08:25 35.0620 28.8370 117° Southeast 525 604 36,900  Level FlightAware
08:25 35.0140 28.9560 116° Southeast 524 603 36,900  Level FlightAware
08:26 34.9830 29.0310 117° Southeast 521 600 36,900  Level FlightAware
08:27 34.9320 29.1570 116° Southeast 521 600 36,900  Level FlightAware
08:27 34.8980 29.2470 115° Southeast 521 600 36,900  Level FlightAware
08:29 34.8020 29.4670 118° Southeast 517 595 37,000  Climbing FlightAware
08:29 34.7570 29.5760 117° Southeast 520 598 36,900 -120 Descending FlightAware
08:30 34.7080 29.6930 117° Southeast 522 601 36,900  Level FlightAware
08:31 34.6640 29.7960 117° Southeast 526 605 36,900  Level FlightAware
08:32 34.6140 29.9170 117° Southeast 526 605 36,900  Level FlightAware
08:32 34.5800 29.9970 117° Southeast 526 605 36,900  Level FlightAware
08:33 34.5140 30.1390 119° Southeast 523 602 36,900 -540 Level FlightAware
08:34 34.4460 30.2780 121° Southeast 521 600 36,000 -1,020 Descending FlightAware
08:35 34.3960 30.3820 120° Southeast 521 600 35,300 -720 Descending FlightAware
08:35 34.3290 30.5200 120° Southeast 521 600 34,900 -240 Descending FlightAware
08:37 34.2500 30.6840 120° Southeast 517 595 34,900  Level FlightAware
08:37 34.1990 30.7900 120° Southeast 518 596 34,900  Level FlightAware
08:38 34.1440 30.9030 120° Southeast 514 592 34,900  Level FlightAware
08:39 34.0930 31.0060 121° Southeast 512 589 34,900  Level FlightAware
08:39 34.0420 31.1100 121° Southeast 512 589 34,900  Level FlightAware
08:40 33.9900 31.2160 121° Southeast 511 588 34,900  Level FlightAware
08:41 33.9470 31.3030 121° Southeast 510 587 34,900  Level FlightAware
08:42 33.8690 31.4610 121° Southeast 508 585 34,900  Level FlightAware
08:43 33.7850 31.6300 121° Southeast 504 580 34,900  Level FlightAware
08:44 33.7430 31.7150 121° Southeast 503 579 34,900  Level FlightAware
08:44 33.6890 31.8230 121° Southeast 503 579 34,900  Level FlightAware
08:45 33.6420 31.9150 122° Southeast 504 580 34,900  Level FlightAware
08:46 33.5890 32.0210 121° Southeast 503 579 34,900  Level FlightAware
08:46 33.5330 32.1310 121° Southeast 504 580 34,900  Level FlightAware
08:47 33.4870 32.2220 121° Southeast 505 581 34,900  Level FlightAware
08:48 33.4380 32.3190 121° Southeast 504 580 34,900  Level FlightAware
08:49 33.3830 32.4270 121° Southeast 503 579 34,900  Level FlightAware
08:49 33.3350 32.5210 121° Southeast 503 579 34,900 -480 Level FlightAware
08:50 33.2840 32.6210 121° Southeast 491 565 34,300 -1,020 Descending FlightAware
08:51 33.2320 32.7210 122° Southeast 478 550 33,500 -1,320 Descending FlightAware
08:51 33.1860 32.8090 122° Southeast 476 548 32,600 -1,440 Descending FlightAware
08:52 33.1410 32.8970 121° Southeast 469 540 31,600 -1,920 Descending FlightAware
08:53 33.0880 33.0020 121° Southeast 456 525 29,900 -2,100 Descending FlightAware
08:53 33.0480 33.0810 121° Southeast 446 513 28,700 -1,920 Descending FlightAware
08:54 33.0010 33.1720 122° Southeast 433 498 27,200 -1,980 Descending FlightAware
08:55 32.9590 33.2560 121° Southeast 420 483 25,900 -1,920 Descending FlightAware
08:56 32.9140 33.3440 121° Southeast 406 467 24,500 -1,860 Descending FlightAware
08:56 32.8750 33.4180 122° Southeast 396 456 23,300 -1,920 Descending FlightAware
08:57 32.8340 33.4970 122° Southeast 402 463 22,000 -1,860 Descending FlightAware
08:58 32.7920 33.5810 121° Southeast 409 471 20,700 -1,860 Descending FlightAware
08:58 32.7520 33.6570 122° Southeast 397 457 19,400 -1,860 Descending FlightAware
08:59 32.7090 33.7410 121° Southeast 381 438 18,100 -1,800 Descending FlightAware
09:00 32.6720 33.8120 122° Southeast 370 426 16,900 -1,740 Descending FlightAware
09:00 32.6330 33.8860 122° Southeast 360 414 15,700 -1,560 Descending FlightAware
09:01 32.5980 33.9520 122° Southeast 363 418 14,700 -1,680 Descending FlightAware
09:02 32.5620 34.0210 122° Southeast 362 417 13,500 -1,740 Descending FlightAware
09:03 32.5220 34.0980 122° Southeast 349 402 12,300 -1,560 Descending FlightAware
09:03 32.4900 34.1590 122° Southeast 341 392 11,300 -1,380 Descending FlightAware
09:04 32.4380 34.2270 132° Southeast 325 374 10,300 -660 Descending FlightAware
09:05 32.3950 34.2770 136° Southeast 325 374 10,300 -840 Level FlightAware
09:05 32.3620 34.3140 137° Southeast 285 328 9,300 -1,320 Descending FlightAware
09:06 32.3300 34.3520 135° Southeast 8,600 -1,080 Descending FlightAware
09:06 32.3010 34.3860 135° Southeast 281 323 8,100 -1,020 Descending FlightAware
09:07 32.2750 34.4160 136° Southeast 283 326 7,700 -900 Descending FlightAware
09:07 32.2530 34.4420 135° Southeast 283 326 7,300 -960 Descending FlightAware
09:08 32.2140 34.4960 130° Southeast 275 316 6,600 -1,080 Descending FlightAware
09:09 32.1950 34.5320 122° Southeast 267 307 6,100 -1,020 Descending FlightAware
09:09 32.1760 34.5680 122° Southeast 261 300 5,600 -1,020 Descending FlightAware
09:09 32.1610 34.5970 121° Southeast 265 305 5,200 -1,080 Descending FlightAware
09:10 32.1530 34.6120 122° Southeast 269 310 5,000 -300 Descending FlightAware
09:10 32.1190 34.6740 123° Southeast 271 312 4,900 -120 Descending FlightAware
09:11 32.1070 34.6950 124° Southeast 269 310 4,900 60 Level FlightAware
09:11 32.0820 34.7400 123° Southeast 245 282 5,000 120 Climbing FlightAware
09:12 32.0750 34.7510 127° Southeast 239 275 5,000 -360 Level FlightAware
09:12 32.0460 34.7960 127° Southeast 233 268 4,700 -600 Descending FlightAware
09:13 32.0260 34.8180 137° Southeast 237 273 4,400 -360 Descending FlightAware
09:13 32.0040 34.8430 136° Southeast 237 273 4,400 -240 Level FlightAware
09:14 31.9810 34.8690 136° Southeast 228 262 4,200 -720 Descending FlightAware
09:14 31.9670 34.9000 118° Southeast 201 231 3,700 -1,140 Descending FlightAware
09:15 31.9730 34.9310 77° East 186 214 3,100 -1,320 Descending FlightAware
09:15 31.9790 34.9580 75° East 181 208 2,400 -780 Descending FlightAware
09:16 31.9840 34.9800 75° East 181 208 2,400  Level FlightAware
09:18 32.0095 34.8769 286° West  Level Estimated
09:19 32.0095 34.8769 270° West  Level Estimated